Location: Cheyres
(46.8153°N, 6.7877°E)
Time: 03:55:24
(UTC+00:00)

QB50P2 - Pass Details

Date: 01 July 2022
Orbit: 590 x 605 km, 97.9° (Epoch: 13 August)

Event Time Altitude Azimuth Distance (km) Brightness Sun altitude
Rises 00:04:54 0° 26° (NNE) 2,860 ? -19.8°
Reaches altitude 10° 00:07:30 10° 41° (NE) 1,955 ? -19.7°
Maximum altitude 00:10:50 22° 93° (E) 1,323 ? -19.6°
Enters shadow 00:12:17 19° 122° (ESE) 1,462 ? -19.6°
